<?xml version="1.0"?>
<gpx xmlns="http://www.topografix.com/GPX/1/1" xmlns:xsi="http://www.w3.org/2001/XMLSchema-instance" version="1.1" creator="GPX RubyGem 1.0.0 -- http://dougfales.github.io/gpx/" xsi:schemaLocation="http://www.topografix.com/GPX/1/1 http://www.topografix.com/GPX/1/1/gpx.xsd">
  <metadata>
    <name/>
    <time>2026-05-08T17:43:17+00:00</time>
    <bound minlat="90.0" minlon="180.0" maxlat="-90.0" maxlon="-180.0"/>
  </metadata>
  <trk>
    <name/>
    <trkseg>
      <trkpt lat="47.469694" lon="7.506441">
        <time>1970-01-01T00:00:00+00:00</time>
        <ele>539.0</ele>
      </trkpt>
      <trkpt lat="47.469646" lon="7.506421">
        <time>1970-01-01T00:00:00+00:00</time>
        <ele>540.0</ele>
      </trkpt>
      <trkpt lat="47.469421" lon="7.506498">
        <time>1970-01-01T00:00:00+00:00</time>
        <ele>543.0</ele>
      </trkpt>
      <trkpt lat="47.469389" lon="7.506551">
        <time>1970-01-01T00:00:00+00:00</time>
        <ele>543.0</ele>
      </trkpt>
      <trkpt lat="47.469391" lon="7.50616">
        <time>1970-01-01T00:00:00+00:00</time>
        <ele>546.0</ele>
      </trkpt>
      <trkpt lat="47.469392" lon="7.505874">
        <time>1970-01-01T00:00:00+00:00</time>
        <ele>548.0</ele>
      </trkpt>
      <trkpt lat="47.469359" lon="7.505532">
        <time>1970-01-01T00:00:00+00:00</time>
        <ele>549.0</ele>
      </trkpt>
      <trkpt lat="47.469147" lon="7.505174">
        <time>1970-01-01T00:00:00+00:00</time>
        <ele>553.0</ele>
      </trkpt>
      <trkpt lat="47.468979" lon="7.504716">
        <time>1970-01-01T00:00:00+00:00</time>
        <ele>559.0</ele>
      </trkpt>
      <trkpt lat="47.468928" lon="7.504119">
        <time>1970-01-01T00:00:00+00:00</time>
        <ele>562.0</ele>
      </trkpt>
      <trkpt lat="47.468819" lon="7.503504">
        <time>1970-01-01T00:00:00+00:00</time>
        <ele>564.0</ele>
      </trkpt>
      <trkpt lat="47.468353" lon="7.501452">
        <time>1970-01-01T00:00:00+00:00</time>
        <ele>580.0</ele>
      </trkpt>
      <trkpt lat="47.468201" lon="7.500686">
        <time>1970-01-01T00:00:00+00:00</time>
        <ele>582.0</ele>
      </trkpt>
      <trkpt lat="47.468031" lon="7.499962">
        <time>1970-01-01T00:00:00+00:00</time>
        <ele>586.0</ele>
      </trkpt>
      <trkpt lat="47.467881" lon="7.499223">
        <time>1970-01-01T00:00:00+00:00</time>
        <ele>583.0</ele>
      </trkpt>
      <trkpt lat="47.467659" lon="7.498482">
        <time>1970-01-01T00:00:00+00:00</time>
        <ele>573.0</ele>
      </trkpt>
      <trkpt lat="47.467724" lon="7.498407">
        <time>1970-01-01T00:00:00+00:00</time>
        <ele>570.0</ele>
      </trkpt>
      <trkpt lat="47.468206" lon="7.498056">
        <time>1970-01-01T00:00:00+00:00</time>
        <ele>555.0</ele>
      </trkpt>
      <trkpt lat="47.468414" lon="7.498303">
        <time>1970-01-01T00:00:00+00:00</time>
        <ele>551.0</ele>
      </trkpt>
      <trkpt lat="47.468595" lon="7.498017">
        <time>1970-01-01T00:00:00+00:00</time>
        <ele>549.0</ele>
      </trkpt>
      <trkpt lat="47.468595" lon="7.498017">
        <time>1970-01-01T00:00:00+00:00</time>
        <ele>549.0</ele>
      </trkpt>
      <trkpt lat="47.468414" lon="7.498303">
        <time>1970-01-01T00:00:00+00:00</time>
        <ele>551.0</ele>
      </trkpt>
      <trkpt lat="47.468206" lon="7.498056">
        <time>1970-01-01T00:00:00+00:00</time>
        <ele>555.0</ele>
      </trkpt>
      <trkpt lat="47.467724" lon="7.498407">
        <time>1970-01-01T00:00:00+00:00</time>
        <ele>570.0</ele>
      </trkpt>
      <trkpt lat="47.467659" lon="7.498482">
        <time>1970-01-01T00:00:00+00:00</time>
        <ele>573.0</ele>
      </trkpt>
      <trkpt lat="47.467881" lon="7.499223">
        <time>1970-01-01T00:00:00+00:00</time>
        <ele>583.0</ele>
      </trkpt>
      <trkpt lat="47.468031" lon="7.499962">
        <time>1970-01-01T00:00:00+00:00</time>
        <ele>586.0</ele>
      </trkpt>
      <trkpt lat="47.468201" lon="7.500686">
        <time>1970-01-01T00:00:00+00:00</time>
        <ele>582.0</ele>
      </trkpt>
      <trkpt lat="47.468353" lon="7.501452">
        <time>1970-01-01T00:00:00+00:00</time>
        <ele>580.0</ele>
      </trkpt>
      <trkpt lat="47.468819" lon="7.503504">
        <time>1970-01-01T00:00:00+00:00</time>
        <ele>564.0</ele>
      </trkpt>
      <trkpt lat="47.468928" lon="7.504119">
        <time>1970-01-01T00:00:00+00:00</time>
        <ele>562.0</ele>
      </trkpt>
      <trkpt lat="47.468979" lon="7.504716">
        <time>1970-01-01T00:00:00+00:00</time>
        <ele>559.0</ele>
      </trkpt>
      <trkpt lat="47.469147" lon="7.505174">
        <time>1970-01-01T00:00:00+00:00</time>
        <ele>553.0</ele>
      </trkpt>
      <trkpt lat="47.469359" lon="7.505532">
        <time>1970-01-01T00:00:00+00:00</time>
        <ele>549.0</ele>
      </trkpt>
      <trkpt lat="47.469392" lon="7.505874">
        <time>1970-01-01T00:00:00+00:00</time>
        <ele>548.0</ele>
      </trkpt>
      <trkpt lat="47.469391" lon="7.50616">
        <time>1970-01-01T00:00:00+00:00</time>
        <ele>546.0</ele>
      </trkpt>
      <trkpt lat="47.469389" lon="7.506551">
        <time>1970-01-01T00:00:00+00:00</time>
        <ele>543.0</ele>
      </trkpt>
      <trkpt lat="47.469421" lon="7.506498">
        <time>1970-01-01T00:00:00+00:00</time>
        <ele>543.0</ele>
      </trkpt>
      <trkpt lat="47.469646" lon="7.506421">
        <time>1970-01-01T00:00:00+00:00</time>
        <ele>540.0</ele>
      </trkpt>
      <trkpt lat="47.469694" lon="7.506441">
        <time>1970-01-01T00:00:00+00:00</time>
        <ele>539.0</ele>
      </trkpt>
    </trkseg>
  </trk>
</gpx>
